Weather History for Juliana Airport, St. Martin

Change the Weather History Date:

Friday, March 15, 2013

  Actual Average Record
Temperature  
Mean Temperature 78 °F -  
Max Temperature 82 °F 82 °F 86 °F (1998)
Min Temperature 73 °F 73 °F 71 °F (2007)
Cooling Degree Days 12    
Growing Degree Days 28 (Base 50)    
Moisture  
Dew Point 64 °F    
Average Humidity 60    
Maximum Humidity 73    
Minimum Humidity 40    
Precipitation  
Precipitation 0.00 in 0.07 in - ()
Sea Level Pressure  
Sea Level Pressure 29.97 in    
Wind  
Wind Speed 5 mph ()    
Max Wind Speed 10 mph    
Max Gust Speed -    
Visibility 6.2 miles    
Events      
Averages and records for this station are not official NWS values.
T = Trace of Precipitation, MM = Missing Value Source: Averaged Metar Reports

Daily Weather History Graph

Daily Weather History Graph

Search for Another Location

Airport:

Trip Planner

Search our weather history database for the weather conditions in past years. The results will help you decide how hot, cold, wet, or windy it might be!

Date:

Astronomy

Mar. 15, 2013 Rise Set
Actual Time 6:20 AM AST 6:22 PM AST
Civil Twilight 5:58 AM AST 6:44 PM AST
Nautical Twilight 5:33 AM AST 7:09 PM AST
Astronomical Twilight 5:08 AM AST 7:34 PM AST
Moon 8:44 AM AST (3/15) 9:51 PM AST (3/15)
Length of Visible Light 12h 45m
Length of Day
12h 01m
Waxing Crescent, 15% of the Moon is Illuminated
Mar 15
Waxing Crescent
Mar 19
First Quarter
Mar 27
Full
Apr 3
Last Quarter
Apr 10
New

Hourly Weather History & Observations

Time (AST) Temp. Heat Index Dew Point Humidity Pressure Visibility Wind Dir Wind Speed Gust Speed Precip Events Conditions
12:00 AM 75.2 °F - 64.4 °F 69% 29.98 in 6.2 mi East 5.8 mph - N/A   Scattered Clouds
1:00 AM 75.2 °F - 64.4 °F 69% 29.95 in 6.2 mi ESE 4.6 mph - N/A   Mostly Cloudy
2:00 AM 74 °F - 63 °F 61% 29.95 in 37 mi 3.5 mph - -   Mostly Cloudy
2:00 AM 73.4 °F - 62.6 °F 69% 29.95 in - North - - N/A   Mostly Cloudy
3:00 AM 73.4 °F - 62.6 °F 69% 29.92 in 6.2 mi ENE 4.6 mph - N/A   Scattered Clouds
4:00 AM 75.2 °F - 64.4 °F 69% 29.92 in 6.2 mi Variable 2.3 mph - N/A   Scattered Clouds
5:00 AM 74 °F - 65 °F 67% 29.94 in 37 mi 2.3 mph - -   Partly Cloudy
5:00 AM 75.2 °F - 66.2 °F 73% 29.92 in - North - - N/A   Scattered Clouds
6:00 AM 75.2 °F - 64.4 °F 69% 29.95 in 6.2 mi ESE 8.1 mph - N/A   Mostly Cloudy
7:00 AM 75.2 °F - 64.4 °F 69% 29.98 in 6.2 mi Variable 3.5 mph - N/A   Mostly Cloudy
8:00 AM 78 °F - 64 °F 53% 30.00 in 47 mi 3.5 mph - -   Mostly Cloudy
8:00 AM 77.0 °F - 64.4 °F 65% 30.01 in 6.2 mi Variable 2.3 mph - N/A   Mostly Cloudy
9:00 AM 80.6 °F 81.8 °F 62.6 °F 54% 30.01 in 6.2 mi East 8.1 mph - N/A   Scattered Clouds
10:00 AM 80.6 °F 81.1 °F 59.0 °F 48% 30.01 in 6.2 mi East 8.1 mph - N/A   Mostly Cloudy
11:00 AM 81 °F - 61 °F 40% 30.01 in 44 mi East 10.4 mph - -   Mostly Cloudy
11:00 AM 82.4 °F 82.9 °F 60.8 °F 48% 30.01 in 6.2 mi East 9.2 mph - N/A   Mostly Cloudy
12:00 PM 82.4 °F 82.9 °F 60.8 °F 48% 29.98 in 6.2 mi East 5.8 mph - N/A   Mostly Cloudy
1:00 PM 82.4 °F 83.9 °F 64.4 °F 54% 29.95 in 6.2 mi SE 10.4 mph - N/A   Mostly Cloudy
2:00 PM 82 °F - 64 °F 46% 29.95 in 47 mi SSE 9.2 mph - -   Scattered Clouds
2:00 PM 82.4 °F 83.9 °F 64.4 °F 54% 29.95 in 6.2 mi SSE 9.2 mph - N/A   Partly Cloudy
3:00 PM 80.6 °F 82.3 °F 64.4 °F 58% 29.92 in 6.2 mi ESE 4.6 mph - N/A   Scattered Clouds
4:00 PM 78.8 °F - 64.4 °F 61% 29.92 in 6.2 mi East 6.9 mph - N/A   Scattered Clouds
5:00 PM 79 °F - 63 °F 48% 29.94 in 47 mi East 8.1 mph - -  
5:00 PM 78.8 °F - 62.6 °F 57% 29.92 in 6.2 mi East 8.1 mph - N/A   Partly Cloudy
6:00 PM 78.8 °F - 66.2 °F 65% 29.95 in 6.2 mi ESE 10.4 mph - N/A   Partly Cloudy
7:00 PM 77.0 °F - 64.4 °F 65% 29.95 in 6.2 mi East 5.8 mph - N/A   Partly Cloudy
8:00 PM 76 °F - 65 °F 60% 29.98 in 37 mi East 5.8 mph - -   Scattered Clouds
8:00 PM 77.0 °F - 64.4 °F 65% 29.98 in 6.2 mi ENE 5.8 mph - N/A   Partly Cloudy
9:00 PM 77.0 °F - 64.4 °F 65% 30.01 in 6.2 mi ENE 5.8 mph - N/A   Scattered Clouds
10:00 PM 77.0 °F - 64.4 °F 65% 30.01 in 6.2 mi ENE 6.9 mph - N/A   Mostly Cloudy
11:00 PM 76 °F - 65 °F 60% 30.03 in 37 mi East 5.8 mph - -   Mostly Cloudy
11:00 PM 77.0 °F - 64.4 °F 65% 30.01 in 6.2 mi ENE 5.8 mph - N/A   Mostly Cloudy